KO4WQD Weather Reports


Display with metric or nautical units.
time (UTC)temp
F
wind
direction
speed
MPH
gust
MPH
rain 1hr
in
rain 24hr
in
rain mn
in
humidity
%
barometer
mb
20260507180008 63 360 3.0 10.0 0.00 0.00 0.00 45 1009.6
20260507174516 63 49 6.0 9.0 0.00 0.00 0.00 44 1009.7
20260507173021 62 178 2.0 6.0 0.00 0.00 0.00 46 1010.1
20260507171522 62 326 3.0 10.0 0.00 0.00 0.00 43 1010.3
20260507170023 60 42 2.0 16.0 0.00 0.00 0.00 42 1010.8
20260507164512 61 19 3.0 5.0 0.00 0.00 0.00 43 1010.9
20260507163017 60 65 3.0 8.0 0.00 0.00 0.00 44 1011.1
20260507161520 59 59 5.0 12.0 0.00 0.00 0.00 47 1011.3
20260507160027 60 92 4.0 7.0 0.00 0.00 0.00 44 1011.6
20260507154534 59 17 9.0 13.0 0.00 0.00 0.00 46 1011.6
20260507153029 58 272 5.0 10.0 0.00 0.00 0.00 49 1011.9
20260507151521 57 17 7.0 18.0 0.00 0.00 0.00 52 1012.0
20260507150027 57 44 7.0 12.0 0.00 0.00 0.00 50 1012.3
20260507144526 56 337 6.0 14.0 0.00 0.00 0.00 49 1012.5
20260507143022 55 55 2.0 5.0 0.00 0.00 0.00 53 1012.5
20260507141519 54 53 3.0 6.0 0.00 0.01 0.00 53 1012.7
20260507140021 54 30 1.0 5.0 0.00 0.01 0.00 54 1013.0
20260507134530 54 30 1.0 6.0 0.00 0.05 0.00 54 1013.2
20260507133028 54 320 4.0 10.0 0.00 0.06 0.00 56 1013.2
20260507131519 54 36 1.0 5.0 0.00 0.07 0.00 59 1013.1
20260507130030 54 331 2.0 5.0 0.00 0.09 0.00 60 1013.3
20260507124528 53 60 3.0 4.0 0.00 0.12 0.00 60 1013.3
20260507123027 53 331 3.0 6.0 0.00 0.14 0.00 59 1013.1
20260507121526 53 24 2.0 5.0 0.00 0.16 0.00 61 1013.0
20260507120021 53 352 1.0 4.0 0.00 0.17 0.00 63 1013.2
20260507114521 53 28 2.0 3.0 0.00 0.21 0.00 60 1013.0
20260507113028 53 360 3.0 8.0 0.00 0.24 0.00 62 1012.7
20260507111527 53 5 3.0 9.0 0.00 0.26 0.00 59 1012.7
20260507110016 53 44 5.0 9.0 0.00 0.26 0.00 60 1012.6
20260507104520 53 13 4.0 8.0 0.00 0.26 0.00 64 1012.6
20260507103029 53 41 2.0 8.0 0.00 0.26 0.00 67 1012.2
20260507101527 54 30 4.0 8.0 0.00 0.26 0.00 69 1012.1
20260507100033 54 11 1.0 5.0 0.00 0.26 0.00 71 1011.8
20260507094526 54 347 3.0 5.0 0.00 0.26 0.00 71 1011.9
20260507093004 54 26 3.0 6.0 0.00 0.26 0.00 70 1011.8
20260507091510 54 38 0.0 4.0 0.00 0.26 0.00 71 1011.6
20260507090016 54 37 2.0 6.0 0.00 0.26 0.00 70 1011.7
20260507084519 54 60 1.0 4.0 0.00 0.26 0.00 70 1011.7
20260507083025 55 51 2.0 5.0 0.00 0.26 0.00 70 1011.5
20260507081504 55 79 1.0 8.0 0.00 0.26 0.00 71 1011.5
20260507080014 55 13 1.0 4.0 0.00 0.26 0.00 72 1011.4
20260507074518 55 69 2.0 6.0 0.00 0.26 0.00 72 1011.1
20260507073023 55 62 2.0 8.0 0.00 0.26 0.00 71 1011.1
20260507071555 55 14 0.0 5.0 0.00 0.26 0.00 71 1011.0
20260507070013 55 57 1.0 6.0 0.00 0.26 0.00 71 1011.1
20260507064515 55 326 2.0 10.0 0.00 0.26 0.00 73 1011.1
20260507063021 55 23 2.0 8.0 0.00 0.26 0.00 73 1011.5
20260507061525 56 12 1.0 7.0 0.00 0.26 0.00 73 1011.6
20260507060009 56 352 1.0 5.0 0.00 0.26 0.00 74 1011.5
20260507054512 56 311 2.0 7.0 0.00 0.26 0.00 75 1011.4
20260507053018 56 350 1.0 4.0 0.00 0.26 0.00 75 1011.4
20260507051530 56 35 3.0 10.0 0.00 0.26 0.00 75 1011.4
20260507050034 56 327 4.0 9.0 0.00 0.26 0.00 75 1011.5
20260507044510 57 38 3.0 6.0 0.00 0.26 0.00 75 1011.4
20260507043016 57 339 6.0 10.0 0.00 0.26 0.00 76 1011.2
20260507041524 57 11 3.0 9.0 0.00 0.26 0.00 78 1011.3
20260507040028 58 44 3.0 9.0 0.00 0.26 0.00 77 1010.8
20260507034535 58 341 3.0 12.0 0.00 0.26 0.26 78 1011.3
20260507033029 59 26 3.0 10.0 0.00 0.26 0.26 77 1010.2
20260507031519 60 39 3.0 7.0 0.00 0.26 0.26 77 1010.8
20260507030026 60 17 1.0 8.0 0.00 0.26 0.26 77 1010.6
20260507024526 61 9 1.0 11.0 0.00 0.26 0.26 77 1010.7
20260507023020 61 360 4.0 10.0 0.00 0.26 0.26 77 1009.8
20260507021518 62 360 6.0 9.0 0.00 0.26 0.26 77 1010.1
20260507020025 62 16 2.0 11.0 0.00 0.26 0.26 74 1009.8
20260507014508 63 15 2.0 5.0 0.00 0.26 0.26 74 1009.7
20260507013010 63 67 1.0 9.0 0.00 0.26 0.26 74 1009.7
20260507011517 63 94 1.0 8.0 0.00 0.26 0.26 74 1009.6
20260507010025 64 336 1.0 9.0 0.00 0.26 0.26 78 1009.7
20260507004535 64 340 3.0 6.0 0.00 0.26 0.26 78 1009.8
20260507003007 64 47 2.0 8.0 0.00 0.26 0.26 78 1009.6
20260507001512 65 70 2.0 5.0 0.00 0.26 0.26 81 1009.8
20260507000023 65 5 0.0 5.0 0.00 0.26 0.26 82 1009.4
20260506234522 65 234 0.0 2.0 0.00 0.26 0.26 85 1009.4
20260506233027 66 300 1.0 3.0 0.00 0.26 0.26 86 1009.0
20260506231512 66 213 1.0 2.0 0.00 0.26 0.26 89 1008.5
20260506230015 66 188 1.0 2.0 0.00 0.26 0.26 87 1008.2
20260506224521 67 326 0.0 2.0 0.00 0.26 0.26 84 1008.4
20260506223028 68 327 1.0 2.0 0.00 0.26 0.26 82 1008.2
20260506221509 68 215 1.0 2.0 0.00 0.26 0.26 81 1008.0
20260506220030 69 271 1.0 4.0 0.00 0.26 0.26 80 1008.0
20260506214519 69 200 2.0 7.0 0.00 0.26 0.26 78 1008.0
20260506213031 69 219 2.0 5.0 0.00 0.26 0.26 78 1007.9
20260506211532 69 275 2.0 6.0 0.00 0.26 0.26 78 1007.8
20260506210014 69 248 3.0 7.0 0.00 0.26 0.26 78 1007.5
20260506204517 68 235 3.0 9.0 0.00 0.26 0.26 78 1007.3
20260506203028 69 202 4.0 10.0 0.00 0.26 0.26 77 1007.3
20260506201528 69 171 5.0 10.0 0.00 0.26 0.26 78 1007.4
20260506200030 69 209 5.0 12.0 0.00 0.26 0.26 78 1007.5
20260506194516 68 156 4.0 6.0 0.00 0.26 0.26 78 1007.7
20260506193020 67 195 3.0 7.0 0.00 0.26 0.26 79 1007.6
20260506191526 67 205 3.0 10.0 0.00 0.26 0.26 79 1007.7
20260506190028 67 192 5.0 12.0 0.00 0.26 0.26 80 1007.8
20260506184517 67 196 4.0 11.0 0.00 0.26 0.26 79 1007.8
20260506183021 67 229 6.0 9.0 0.00 0.26 0.26 78 1007.8
20260506181524 67 265 5.0 11.0 0.00 0.26 0.26 80 1008.1